Content
SEND FEEDBACK

Daily
Averages
Monthly
Summary
United States of America

BAYOU LA BATRE, ALABAMA


Home > North America > United States > Alabama
Elevation: 0 feet     Latitude: 30 23N     Longitude: 088 14W

WEATHER
 
SELECT A DAY
Number of Records: 196,023;   Date Range: 8/14/97 - 9/21/14
 
SHARE

PRINT THIS DATA

[ ← Previous Day ]
WEATHER ALMANAC - JULY 22, 2014
[ Next Day → ]
[ °C ]   °F
Weather ElementAverageHighLow
Temperature77.9 °F88 °F (12:53 pm)72 °F (11:53 pm)
Dewpoint71.9 °F73.9 °F (1:53 pm)70 °F (12:53 pm)
Humidity82.7 %97 % (1:53 am)55 % (12:53 pm)
Barometer30.02 in30.06 in (9:53 pm)29.98 in (2:53 am)
Wind Speed2.8 mph8.1 mph (1:53 pm)
Weather ElementAverage
Visibility9.6 mi
Wind DirectionSSE (151 °)

Weather ElementTotal
Precipitation---
Cooling Degree Days15 (Base 65)
Growing Degree Days30 (Base 50)
Averaged from 20 records on July 22, 2014
WEATHER CONDITIONS BREAKOUT
WIND DIRECTION BREAKOUT
WEATHER BY HOUR - JULY 22, 2014
[ °C ]   °F
Local TimeTemperatureDewpointHumidityBarometerVisibilityWind DirectionWind SpeedGust SpeedPrecipitationEventsConditions
1:53 AM73.9 °F73.0 °F97 %29.99 in7.0 miCalmPartly Cloudy
2:53 AM73.9 °F72.0 °F93 %29.98 in10.0 miCalmClear
3:53 AM73.0 °F72.0 °F96 %29.98 in8.0 miCalmClear
4:53 AM73.9 °F71.1 °F91 %30.00 in10.0 miCalmMostly Cloudy
5:53 AM73.9 °F71.1 °F91 %30.00 in10.0 miCalmClear
6:53 AM73.9 °F71.1 °F91 %30.03 in10.0 miNorth (360°)3.5 mphMostly Cloudy
7:53 AM78.1 °F73.0 °F84 %30.04 in10.0 miCalmMostly Cloudy
9:53 AM84.0 °F72.0 °F67 %30.05 in10.0 miCalmMostly Cloudy
10:53 AM86.0 °F73.0 °F65 %30.04 in10.0 miVariable3.5 mphScattered Clouds
12:53 PM88.0 °F70.0 °F55 %30.02 in10.0 miSW (220°)3.5 mphMostly Cloudy
1:53 PM84.0 °F73.9 °F72 %30.03 in10.0 miENE (60°)8.1 mphOvercast
2:53 PM80.1 °F73.9 °F81 %30.02 in9.0 miNW (310°)5.8 mphMostly Cloudy
3:53 PM81.0 °F73.0 °F77 %30.01 in10.0 miNorth (360°)6.9 mphScattered Clouds
4:53 PM82.0 °F71.1 °F69 %30.02 in10.0 miNorth (350°)5.8 mphClear
5:53 PM81.0 °F70.0 °F69 %30.01 in10.0 miNNW (330°)4.6 mphClear
6:53 PM78.1 °F71.1 °F79 %30.01 in10.0 miNNW (330°)4.6 mphClear
7:53 PM75.0 °F72.0 °F90 %30.04 in10.0 miNorth (360°)4.6 mphClear
9:53 PM73.9 °F72.0 °F93 %30.06 in10.0 miCalmClear
10:53 PM73.0 °F72.0 °F96 %30.04 in10.0 miCalmClear
11:53 PM72.0 °F71.1 °F97 %30.05 in7.0 miNNW (340°)4.6 mphClear
Hourly data recorded from KPQL, located miles away from Bayou La Batre, Alabama







STORIES FROM OUR PARTNERS